Location: Observatory
(52.1446°N, 0.4624°W)
Time: 04:53:22
(UTC+01:00)

ISS - Pass Details

Date: 27 May 2019
Orbit: 408 x 418 km, 51.6° (Epoch: 16 June)

Event Time Altitude Azimuth Distance (km) Brightness Sun altitude
Rises 22:18:40 0° 277° (W) 2,356 0.8 -8.6°
Reaches altitude 10° 22:20:46 10° 275° (W) 1,494 -0.3 -8.8°
Maximum altitude 22:24:06 72° 191° (S) 442 -3.8 -9.1°
Drops below altitude 10° 22:27:27 10° 107° (ESE) 1,498 -1.4 -9.4°
Enters shadow 22:27:43 - 107° (ESE) 1,607 -1.3 -9.4°
Exits shadow 22:59:55 -66° 105° (ESE) 12,086 3.6 -12.0°
